User: anonymous   Login
Location: Karlovy Vary
(50.2170°N, 12.9000°E)
Time: 23:44:05
(UTC+01:00)
Language:

ISS - Orbit

View from above orbital plane
View from above orbital plane
View from above satellite
View from above satellite

Ground track
Ground track

The orbit data is extracted from the following two-line orbital elements,

1 25544U 98067A   15032.46425904  .00014369  00000-0  22307-3 0  8084
2 25544 051.6471 041.7603 0005800 315.5306 199.7210 15.54220656926915
Epoch (UTC): 01 February 2015 11:08:31
Eccentricity: 0.0005800
inclination: 51.6471°
perigee height: 400 km
apogee height: 408 km
right ascension of ascending node: 41.7603°
argument of perigee: 315.5306°
revolutions per day: 15.54220656
mean anomaly at epoch: 199.7210°
orbit number at epoch: 92691

The dashed part of the orbit path shows where the satellite is in the earth's shadow,  

DLR